Regional Weather Roundup
Issued by NWS

Home | Current Version | Previous Version | Graphics & Text | Print | Product List | Glossary On
Versions: 1 2 3 4 5 6 7 8 9 10 11 12 13 14 15 16 17 18 19 20 21 22 23 24 25 26 27 28 29 30 31 32 33 34 35 36 37 38 39 40 41 42 43 44 45 46 47 48 49 50
000
ASUS43 KMKX 021821
RWRWI

WISCONSIN REGIONAL WEATHER ROUNDUP
NATIONAL WEATHER SERVICE MILWAUKEE/SULLIVAN WI
100 PM CDT TUE SEP 02 2014

NOTE: "FAIR" INDICATES FEW OR NO CLOUDS BELOW 12,000 FEET WITH NO
SIGNIFICANT WEATHER AND/OR OBSTRUCTIONS TO VISIBILITY.

WIZ001-002-006>008-014>016-023>028-021900-
NORTHWEST WISCONSIN

CITY           SKY/WX    TMP DP  RH WIND       PRES   REMARKS
SUPERIOR ARPT  MOSUNNY   74  55  50 W10       29.81F
6HR MIN TEMP:  52; 6HR MAX TEMP:  75;

ASHLAND        MOSUNNY   74  52  46 MISG      29.84S
6HR MIN TEMP:  55; 6HR MAX TEMP:  74;

HAYWARD        SUNNY     71  52  50 SW8       29.87S
6HR MIN TEMP:  50; 6HR MAX TEMP:  72;

SIREN          SUNNY     73  54  50 W9        29.88S
6HR MIN TEMP:  53; 6HR MAX TEMP:  73;

RICE LAKE      SUNNY     73  51  47 W12       29.90S
6HR MIN TEMP:  55; 6HR MAX TEMP:  72;

LADYSMITH      SUNNY     73  53  50 W9        29.90S
6HR MIN TEMP:  56; 6HR MAX TEMP:  73;

EAU CLAIRE     MOSUNNY   74  57  55 VRB7      29.88S
6HR MIN TEMP:  60; 6HR MAX TEMP:  75;

MENOMONIE      PTCLDY    74  56  53 W6        29.88F
6HR MIN TEMP:  61; 6HR MAX TEMP:  76;

NEW RICHMOND   SUNNY     73  51  46 W6        29.90S
6HR MIN TEMP:  57; 6HR MAX TEMP:  73;

OSCEOLA        MOSUNNY   74  55  51 SW9       29.92S
6HR MIN TEMP:  55; 6HR MAX TEMP:  74;

$$

WIZ003>005-009-010-017-018-021900-
NORTH CENTRAL WISCONSIN

CITY           SKY/WX    TMP DP  RH WIND       PRES   REMARKS
WOODRUFF       SUNNY     72  56  57 W7        29.87F
RHINELANDER    SUNNY     71  51  49 W10       29.88S
6HR MIN TEMP:  53; 6HR MAX TEMP:  71;

EAGLE RIVER    SUNNY     69  49  48 W9        29.86S
LAND O LAKES   SUNNY     70  50  48 NW10      29.87S
6HR MIN TEMP:  46; 6HR MAX TEMP:  71;

PHILLIPS       SUNNY     70  54  55 CALM      29.87S
6HR MIN TEMP:  54; 6HR MAX TEMP:  70;

TOMAHAWK       SUNNY     71  51  48 W5G18     29.89R
6HR MIN TEMP:  51; 6HR MAX TEMP:  71;

MEDFORD        SUNNY     71  56  57 W10       29.89R
6HR MIN TEMP:  56; 6HR MAX TEMP:  71; 6HR PCP:  0.05;

MERRILL        SUNNY     72  57  58 W7        29.88R
6HR MIN TEMP:  52; 6HR MAX TEMP:  72; 6HR PCP:  0.01;

$$

WIZ029-030-035-036-043>047-021900-
CENTRAL WISCONSIN

CITY           SKY/WX    TMP DP  RH WIND       PRES   REMARKS
WAUSAU         MOSUNNY   73  56  54 W9G16     29.87S
6HR MIN TEMP:  58; 6HR MAX TEMP:  73;

MOSINEE        MOSUNNY   73  57  56 W7        29.90R
MARSHFIELD     PTSUNNY   72  61  68 NW8       29.89S
6HR MIN TEMP:  56; 6HR MAX TEMP:  74; 6HR PCP:  0.01;

STEVENS POINT  MOSUNNY   70  56  62 W7G16     29.89S
6HR MIN TEMP:  51; 6HR MAX TEMP:  70; 6HR PCP:  0.03;

WAUPACA        SUNNY     77  59  54 W9        29.88S
6HR MIN TEMP:  57; 6HR MAX TEMP:  77;

WAUTOMA        LGT RAIN  77  57  49 NW8       29.89F
6HR MIN TEMP:  54; 6HR MAX TEMP:  76; 6HR PCP: TRACE;

WISC RAPIDS    MOSUNNY   75  57  53 W7        29.91S
6HR MIN TEMP:  54; 6HR MAX TEMP:  75;

CAMP DOUGLAS   MOSUNNY   73  59  60 VRB6      29.90F
                                      6HR PCP: TRACE;

$$

WIZ011>013-019>022-031-037>040-048>050-021900-
NORTHEAST WISCONSIN

CITY           SKY/WX    TMP DP  RH WIND       PRES   REMARKS
ANTIGO         MOSUNNY   70  58  66 SW8       29.88S
6HR MIN TEMP:  53; 6HR MAX TEMP:  70; 6HR PCP:  0.46;

STURGEON BAY   CLOUDY    66  61  82 SW8       29.86F
6HR MIN TEMP:  59; 6HR MAX TEMP:  68;

GREEN BAY      PTSUNNY   70  60  70 SW8       29.87S
6HR MIN TEMP:  55; 6HR MAX TEMP:  71; 6HR PCP: TRACE;

MANITOWOC      CLOUDY    74  63  68 VRB6      29.88F
6HR MIN TEMP:  61; 6HR MAX TEMP:  75;

APPLETON       PTSUNNY   72  61  68 SW7       29.89S
CLINTONVILLE   PTSUNNY   72  61  68 W6        29.87F
OSHKOSH        MOSUNNY   75  61  61 W9        29.88F
6HR MIN TEMP:  61; 6HR MAX TEMP:  75;

$$

WIZ032>034-041-042-053>061-021900-
SOUTHWEST WISCONSIN

CITY           SKY/WX    TMP DP  RH WIND       PRES   REMARKS
LA CROSSE      SUNNY     77  57  50 W8        29.90S
6HR MIN TEMP:  62; 6HR MAX TEMP:  77;

SPARTA         SUNNY     75  53  46 W10       29.91S
6HR MIN TEMP:  53; 6HR MAX TEMP:  75;

VIROQUA        FAIR      74  56  53 W5        29.93R
6HR MIN TEMP:  59; 6HR MAX TEMP:  74; 6HR PCP:  0.03;

BOSCOBEL       SUNNY     77  56  48 W6        29.92S
6HR MIN TEMP:  59; 6HR MAX TEMP:  77; 6HR PCP:  0.02;

PRAIRIE DU CHI SUNNY     75  56  50 SW7       29.92R
6HR MIN TEMP:  61; 6HR MAX TEMP:  75; 6HR PCP:  0.09;

PLATTEVILLE    FAIR      74  61  63 W10       29.92F
6HR MIN TEMP:  59; 6HR MAX TEMP:  74; 6HR PCP:  0.05;

$$

WIZ056-057-062-063-064-067-068-021900-
SOUTH CENTRAL WISCONSIN

CITY           SKY/WX    TMP DP  RH WIND       PRES   REMARKS
BARABOO/DELLS  MOSUNNY   75  50  41 W8G16     29.91S
6HR MIN TEMP:  57; 6HR MAX TEMP:  77;

LONE ROCK      SUNNY     78  56  46 W9        29.91F
6HR MIN TEMP:  61; 6HR MAX TEMP:  78; 6HR PCP:  0.01;

WATERTOWN      PTSUNNY   74  60  60 W7        29.90S
6HR MIN TEMP:  56; 6HR MAX TEMP:  75;

MADISON        PTSUNNY   74  60  61 VRB5      29.91S
6HR MIN TEMP:  58; 6HR MAX TEMP:  74;

MIDDLETON      FAIR      74  58  56 NW7       29.92S
6HR MIN TEMP:  55; 6HR MAX TEMP:  75;

MONROE         PTSUNNY   73  59  60 SW15      29.92S
JANESVILLE     MOSUNNY   73  55  53 SW7       29.91S
$$

WIZ051-052-058>065-066-070>072-021900-
SOUTHEAST WISCONSIN

CITY           SKY/WX    TMP DP  RH WIND       PRES   REMARKS
MILWAUKEE      PTSUNNY   77  55  46 W12       29.90R
6HR MIN TEMP:  62; 6HR MAX TEMP:  78;

WAUKESHA       PTSUNNY   73  59  60 W10       29.92R
MILWAUKEE/TIMM MOSUNNY   75  55  50 SW6       29.90S
RACINE         MOSUNNY   78  58  49 VRB5      29.91S
6HR MIN TEMP:  64; 6HR MAX TEMP:  79;

BURLINGTON     MOSUNNY   74  59  58 W8        29.91S
6HR MIN TEMP:  55; 6HR MAX TEMP:  76;

KENOSHA        MOSUNNY   78  60  53 VRB6      29.90S
6HR MIN TEMP:  61; 6HR MAX TEMP:  79;

FOND DU LAC    MOSUNNY   75  59  57 W9        29.89F
6HR MIN TEMP:  60; 6HR MAX TEMP:  75;

SHEBOYGAN      PTSUNNY   74  61  63 W12       29.89S
6HR MIN TEMP:  56; 6HR MAX TEMP:  74;

WEST BEND      MOSUNNY   72  57  60 W9        29.90S
JUNEAU         CLOUDY    72  60  65 SW8       29.92S
6HR MIN TEMP:  55; 6HR MAX TEMP:  72;

$$

LSZ147-162-021900-
LAKE SUPERIOR

STATION/POSITION TIME  TEMP    WIND        PRES    WAVE
                       AIR SEA DIR/SP/G            HT/PER
                 (UTC) (F)     (DEG/KT/KT) (MB)    (FT/S)
W MID LAKE BUOY  1750   59 58  210/ 10/ 12 1008.9F   2/ 4
DEVILS ISLAND    1800   66     230/ 11/ 14 1009.2F
PORT WING        1700   67     280/  7/  8 1010.2S
SAXON HARBOR     1740   73     250/  3/  8 1010.2F
$$

LMZ867-665-643>646-021900-
LAKE MICHIGAN

STATION/POSITION TIME  TEMP    WIND        PRES    WAVE
                       AIR SEA DIR/SP/G            HT/PER
                 (UTC) (F)     (DEG/KT/KT) (MB)    (FT/S)
N MID LAKE BUOY  1750   65 65  240/ 10/ 14 1010.3F   1/ 5
NORTHPORT PIER   1700   66     300/  3/  5 1010.2F
KEWAUNEE LAKESHO 1800   71     170/  3/  5 1010.5F
SHEBOYGAN LAKESH 1800   73 50  280/ 11/ 13 1011.9F
ATWATER BUOY     1800   72      90/  8/  8 1013.3F
MILWAUKEE LAKESH 1800   76     250/  5/  9   N/A
S MID LAKE BUOY  1750   71 73  190/  2/  2 1012.4S   1
KENOSHA   LAKESH 1800   70     140/  8/  9 1011.9S
$$

TC  - TEMPERATURE IN CELSIUS
VSB - VISIBILITY IN STATUTE MILES
WCI - WIND CHILL INDEX
HX  - HEAT INDEX




USA.gov is the U.S. government's official web portal to all federal, state and local government web resources and services.